TimeCDT,TemperatureF,Dew PointF,Humidity,Sea Level PressureIn,VisibilityMPH,Wind Direction,Wind SpeedMPH,Gust SpeedMPH,PrecipitationIn,Events,Conditions,WindDirDegrees,DateUTC
2:54 AM,63.0,57.0,81,30.01,10.0,South,3.5,-,N/A,,Overcast,180,2011-10-10 07:54:00
3:54 AM,61.0,57.0,87,30.00,10.0,South,4.6,-,0.00,,Overcast,170,2011-10-10 08:54:00
5:54 AM,60.1,57.0,90,29.99,10.0,South,4.6,-,0.00,Rain,Light Rain,180,2011-10-10 10:54:00
6:54 AM,59.0,57.0,93,30.00,8.0,SSW,4.6,-,0.02,Rain,Light Rain,210,2011-10-10 11:54:00
8:46 AM,60.8,57.2,88,30.03,5.0,South,4.6,-,0.00,,Overcast,170,2011-10-10 13:46:00
8:54 AM,60.1,57.9,93,30.01,6.0,South,3.5,-,0.00,,Overcast,190,2011-10-10 13:54:00
9:54 AM,61.0,57.9,90,30.01,10.0,South,9.2,-,0.01,,Overcast,180,2011-10-10 14:54:00
10:09 AM,62.6,57.2,82,30.04,10.0,South,9.2,-,N/A,,Overcast,180,2011-10-10 15:09:00
10:23 AM,60.8,57.2,88,30.04,2.0,SW,9.2,17.3,0.01,Rain,Rain,220,2011-10-10 15:23:00
10:30 AM,60.8,57.2,88,30.04,3.0,SSW,9.2,-,0.01,Rain,Light Rain,210,2011-10-10 15:30:00
10:54 AM,61.0,57.0,87,30.01,10.0,SSW,6.9,-,0.01,,Overcast,200,2011-10-10 15:54:00
11:16 AM,64.4,57.2,77,30.03,10.0,SSW,8.1,-,N/A,,Mostly Cloudy,200,2011-10-10 16:16:00
11:35 AM,64.4,57.2,77,30.03,10.0,SSW,10.4,-,N/A,,Scattered Clouds,200,2011-10-10 16:35:00
11:49 AM,66.2,55.4,68,30.02,10.0,South,12.7,-,N/A,,Mostly Cloudy,180,2011-10-10 16:49:00
11:54 AM,66.0,57.0,73,30.00,10.0,SSW,10.4,-,N/A,,Mostly Cloudy,200,2011-10-10 16:54:00
12:35 PM,68.0,55.4,64,30.01,10.0,South,12.7,-,N/A,,Partly Cloudy,190,2011-10-10 17:35:00
12:54 PM,68.0,55.0,63,29.98,10.0,SSW,8.1,-,N/A,,Scattered Clouds,210,2011-10-10 17:54:00
1:54 PM,71.1,51.1,49,29.96,10.0,SSW,9.2,16.1,N/A,,Partly Cloudy,200,2011-10-10 18:54:00
3:54 PM,73.0,46.9,39,29.92,10.0,South,8.1,16.1,N/A,,Clear,190,2011-10-10 20:54:00
4:54 PM,73.0,46.0,38,29.90,10.0,South,10.4,-,N/A,,Clear,190,2011-10-10 21:54:00
5:54 PM,71.1,46.0,41,29.90,10.0,South,10.4,-,N/A,,Clear,180,2011-10-10 22:54:00
7:54 PM,57.0,46.9,69,29.92,10.0,SSE,5.8,-,N/A,,Clear,160,2011-10-11 00:54:00
8:54 PM,54.0,46.9,77,29.92,10.0,SSE,8.1,-,N/A,,Clear,150,2011-10-11 01:54:00
9:54 PM,53.1,46.0,77,29.93,10.0,South,5.8,-,N/A,,Clear,190,2011-10-11 02:54:00
10:54 PM,52.0,46.0,80,29.94,10.0,South,4.6,-,N/A,,Clear,180,2011-10-11 03:54:00